Weather History for KASH - August, 2013

Change the Weather History Date:

Wednesday, August 7, 2013

  Actual Average Record
Temperature  
Mean Temperature 66 °F -  
Max Temperature 79 °F 80 °F 95 °F (2001)
Min Temperature 52 °F 57 °F 43 °F (1951)
Growing Degree Days 16 (Base 50)    
Moisture  
Dew Point 53 °F    
Average Humidity 63    
Maximum Humidity 93    
Minimum Humidity 34    
Precipitation  
Precipitation 0.00 in - - ()
Sea Level Pressure  
Sea Level Pressure 30.89 in    
Wind  
Wind Speed 1 mph (SSE)    
Max Wind Speed 8 mph    
Max Gust Speed -    
Visibility 10 miles    
Events Rain    
Averages and records for this station are not official NWS values.
T = Trace of Precipitation, MM = Missing Value Source: NWS Daily Summary

Daily Weather History Graph

Daily Weather History Graph

Search for Another Location

Airport or City:

Trip Planner

Search our weather history database for the weather conditions in past years. The results will help you decide how hot, cold, wet, or windy it might be!

Date:

Astronomy

Aug. 07, 2013 Rise Set
Actual Time 5:44 AM EDT 7:58 PM EDT
Civil Twilight 5:12 AM EDT 8:30 PM EDT
Nautical Twilight 4:33 AM EDT 9:08 PM EDT
Astronomical Twilight 3:50 AM EDT 9:51 PM EDT
Moon 6:32 AM EDT (8/7) 8:01 PM EDT (8/7)
Length of Visible Light 15h 17m
Length of Day
14h 14m
New Moon, 1% of the Moon is Illuminated
Aug 7
New Moon
Aug 14
First Quarter
Aug 20
Full
Aug 28
Last Quarter
Sep 5
New

Hourly Weather History & Observations

Time (EDT) Temp. Dew Point Humidity Pressure Visibility Wind Dir Wind Speed Gust Speed Precip Events Conditions
12:51 AM 57.9 °F 54.0 °F 87% 30.89 in 10.0 mi Calm Calm - N/A   Clear
1:51 AM 56.8 °F 54.0 °F 90% 30.90 in 10.0 mi Calm Calm - N/A   Clear
2:51 AM 55.9 °F 52.9 °F 89% 30.91 in 10.0 mi Calm Calm - N/A   Clear
3:51 AM 54.9 °F 52.0 °F 90% 30.91 in 10.0 mi Calm Calm - N/A   Clear
4:51 AM 54.0 °F 50.9 °F 89% 30.92 in 10.0 mi Calm Calm - N/A   Clear
5:51 AM 52.9 °F 50.9 °F 93% 30.92 in 10.0 mi Calm Calm - N/A   Clear
6:51 AM 55.9 °F 52.9 °F 89% 30.92 in 10.0 mi Calm Calm - N/A   Clear
7:51 AM 61.0 °F 54.9 °F 80% 30.93 in 10.0 mi Calm Calm - N/A   Clear
8:51 AM 63.9 °F 55.9 °F 75% 30.93 in 10.0 mi Calm Calm - N/A   Clear
9:51 AM 68.0 °F 57.9 °F 70% 30.93 in 10.0 mi Calm Calm - N/A   Clear
10:51 AM 72.0 °F 55.9 °F 57% 30.92 in 10.0 mi Calm Calm - N/A   Clear
11:51 AM 74.8 °F 54.0 °F 48% 30.90 in 10.0 mi SSE 3.5 mph - N/A   Clear
12:51 PM 77.9 °F 50.0 °F 38% 30.89 in 10.0 mi Variable 3.5 mph - 0.00 in   Clear
1:51 PM 79.0 °F 52.0 °F 39% 30.89 in 10.0 mi Variable 6.9 mph - 0.00 in Rain Light Rain
2:51 PM 79.9 °F 48.9 °F 34% 30.88 in 10.0 mi Variable 6.9 mph - 0.00 in Rain Light Rain
3:51 PM 79.9 °F 50.9 °F 36% 30.87 in 10.0 mi Variable 6.9 mph - 0.00 in Rain Light Rain
4:51 PM 79.9 °F 48.9 °F 34% 30.86 in 10.0 mi SSE 8.1 mph - 0.00 in   Clear
5:51 PM 77.0 °F 50.0 °F 39% 30.84 in 10.0 mi Variable 4.6 mph - N/A   Clear
6:51 PM 75.9 °F 50.9 °F 41% 30.84 in 10.0 mi Variable 4.6 mph - N/A   Clear
7:51 PM 72.9 °F 52.9 °F 49% 30.84 in 10.0 mi Variable 6.9 mph - N/A   Clear
8:51 PM 70.9 °F 54.0 °F 55% 30.85 in 10.0 mi Calm Calm - N/A   Clear
9:51 PM 68.9 °F 54.9 °F 61% 30.85 in 10.0 mi SE 4.6 mph - N/A   Clear
10:51 PM 68.0 °F 55.9 °F 65% 30.86 in 10.0 mi Calm Calm - N/A   Scattered Clouds
11:51 PM 66.9 °F 56.8 °F 70% 30.85 in 10.0 mi Calm Calm - N/A   Scattered Clouds